Torna al catalogo

STARLINK-37232

AttivoComunicazioniVLEO
NORAD 69515·PAYLOAD·🇺🇸 United States

Lanciato Jun 12, 2026 da Cape Canaveral Space Force Station

Loading…

Prossimi Passaggi (prossime 24 ore)

TLE

AggiornatoSource: CelesTrak SupGP

Epoca: Sep 14, 2026, 22:35 UTC

1 69515C 26133H   26257.94145833  .00038751  00000+0  11449-2 0  2571
2 69515  53.1562 255.8120 0001492  93.9301 107.1248 15.34371815    16

Traccia STARLINK-37232 in tempo reale con AllMySat

Download on the App Store